Location: Lavardac
(44.1778°N, 0.2983°E)
Time: 07:46:56
(UTC+00:00)

Terra - Pass Details

Date: 06 June 2020
Orbit: 701 x 703 km, 98.2° (Epoch: 08 July)

Event Time Altitude Azimuth Distance (km) Brightness Sun altitude
Exits shadow 22:41:32 24° 223° (SW) 1,447 3.2 -20.8°
Maximum altitude 22:43:26 32° 264° (W) 1,200 3.1 -20.9°
Drops below altitude 10° 22:47:42 10° 327° (NNW) 2,179 5.4 -21.2°
Sets 22:50:11 0° 338° (NNW) 3,102 6.7 -21.3°
